[[{"header":{"parameterUnit":"m.s-1","parameterCategory":1,"la1":30.2991,"la2":30.254,"lo1":-89.0895,"lo2":-89.0444,"dy":0.0017,"dx":0.0017,"nx":28,"ny":28,"refTime":"2026-01-06T03:00:00:Z","depth":0,"parameterNumber":2,"parameterNumberName":"U-component_of_WINDS"},"data":[0,0,0,0,0,0,0,0,0,0,0,0,0,0,0,0,0,0,0,0,0,0,0,0,0,0,0,0,0,0,0,0,0,0,0,0,0,0,0,0,0,0,0,0,0,0,0,0,0,0,0,0,0,0,0,0,0,0,-1.7394,-1.7394,0,-1.7411,-1.7411,-1.7412,-1.739,-1.7389,-1.7388,-1.7388,-1.741,-1.7412,-1.7413,0,0,0,0,0,0,0,0,0,0,0,0,0,-1.7347,-1.7348,-1.7394,-1.7394,-1.7394,-1.7411,-1.7411,-1.7412,-1.739,-1.7389,-1.7388,-1.7387,-1.741,-1.7411,-1.7413,0,0,0,0,0,0,0,0,0,0,0,0,0,-1.7366,-1.7348,-1.7394,-1.7385,-1.7385,-1.7411,-1.7411,-1.7412,-1.739,-1.7389,-1.7388,-1.7387,-1.7409,-1.7411,-1.7413,-1.745,0,0,-1.742,-1.742,0,0,0,0,0,0,0,0,-1.7365,-1.7368,-1.7386,-1.7386,-1.7385,-1.7397,-1.7403,-1.7425,-1.7391,-1.7388,-1.7388,-1.7386,-1.7407,-1.7409,-1.7415,-1.7451,-1.7452,-1.742,-1.7421,-1.7422,-1.7422,0,0,0,0,0,0,0,-1.7364,-1.7367,-1.7401,-1.7387,-1.7386,-1.7382,-1.7384,-1.7407,-1.7405,-1.7388,-1.7387,-1.7389,-1.7407,-1.7414,-1.7416,-1.7453,-1.742,-1.7422,-1.7423,-1.7424,-1.7521,-1.7523,0,0,0,0,0,0,-1.7363,-1.7366,-1.74,-1.7401,-1.7372,-1.7384,-1.7386,-1.7395,-1.7404,-1.7404,-1.739,-1.7388,-1.7411,-1.7413,-1.7417,-1.746,-1.7422,-1.7424,-1.7425,-1.752,-1.7522,-1.7523,0,0,0,0,0,0,-1.7362,-1.7366,-1.7399,-1.7383,-1.7387,-1.7386,-1.7396,-1.7396,-1.7402,-1.7405,-1.7405,-1.7397,-1.741,-1.7414,-1.7442,-1.7461,-1.7425,-1.7427,-1.7518,-1.752,-1.7522,-1.7548,0,0,0,0,0,0,-1.736,-1.7366,-1.7378,-1.7384,-1.7388,-1.7423,-1.7398,-1.7397,-1.7405,-1.7403,-1.7412,-1.7412,-1.7409,-1.7439,-1.7444,-1.7463,-1.7428,-1.7517,-1.7519,-1.7522,-1.7545,-1.7551,-1.7555,0,0,0,0,0,-1.7359,-1.7386,-1.7379,-1.7383,-1.7404,-1.7424,-1.7427,-1.7421,-1.7407,-1.742,-1.7423,-1.7412,-1.7458,-1.7442,-1.7448,-1.7467,-1.7515,-1.7518,-1.7521,-1.7543,-1.755,-1.7555,0,0,0,0,0,0,-1.7383,-1.7386,-1.7379,-1.7408,-1.7416,-1.742,-1.7436,-1.7428,-1.7441,-1.7438,-1.7433,-1.7435,-1.7465,-1.747,-1.7451,-1.7504,-1.7485,-1.7489,-1.7499,-1.7506,-1.751,-1.7508,-1.743,0,0,0,0,0,-1.7392,-1.7407,-1.7409,-1.7435,-1.7439,-1.7437,-1.7446,-1.7441,-1.745,-1.7453,-1.7458,-1.7468,-1.7485,-1.7496,-1.7512,-1.7547,-1.7549,-1.7564,-1.7569,-1.7572,-1.7576,-1.7595,-1.7602,-1.7533,-1.7533,-1.7533,0,0,-1.741,-1.7414,-1.7423,-1.744,-1.7445,-1.7462,-1.744,-1.7459,-1.7471,-1.7457,-1.7482,-1.7487,-1.7498,-1.753,-1.7544,-1.7535,-1.7596,-1.7576,-1.7579,-1.7581,-1.7599,-1.7606,-1.7611,-1.7535,-1.7535,-1.7534,0,0,-1.7451,-1.7456,-1.7477,-1.7483,-1.7491,-1.7491,-1.7496,-1.7502,-1.7504,-1.753,-1.7519,-1.7536,-1.7565,-1.7573,-1.7581,-1.7628,-1.7619,-1.7634,-1.7659,-1.7678,-1.7683,-1.7688,-1.7704,-1.771,-1.7638,-1.7638,-1.7638,0,-1.7473,-1.7496,-1.749,-1.7509,-1.7517,-1.7503,-1.7526,-1.7533,-1.7547,-1.7553,-1.7542,-1.7579,-1.7586,-1.7619,-1.7631,-1.7638,-1.7645,-1.7632,-1.7683,-1.7687,-1.7692,-1.7707,-1.7713,-1.764,-1.7639,-1.7639,-1.7639,0,-1.7522,-1.7539,-1.7556,-1.7567,-1.7578,-1.7599,-1.7597,-1.7609,-1.7604,-1.7605,-1.7633,-1.7641,-1.7658,-1.7666,-1.7662,-1.77,-1.7694,-1.7683,-1.7663,-1.77,-1.7714,-1.772,-1.7642,-1.7641,-1.7641,-1.764,0,0,-1.7577,-1.7586,-1.7592,-1.7597,-1.7607,-1.762,-1.7642,-1.7657,-1.7667,-1.7679,-1.7697,-1.7723,-1.7713,-1.7723,-1.772,-1.7737,-1.7774,-1.7725,-1.7725,-1.7732,-1.7816,-1.7822,-1.7829,-1.7769,-1.777,-1.7771,-1.7815,0,-1.7617,-1.7651,-1.7647,-1.7681,-1.7697,-1.7686,-1.7705,-1.7714,-1.7716,-1.7731,-1.7735,-1.7753,-1.7739,-1.7744,-1.7761,-1.7765,-1.779,-1.7763,-1.7786,-1.7787,-1.7781,-1.7837,-1.7843,-1.7884,-1.782,-1.7821,-1.7822,0,-1.7667,-1.7679,-1.7714,-1.7721,-1.7728,-1.7744,-1.7759,-1.7773,-1.7784,-1.7785,-1.7796,-1.7791,-1.7815,-1.7796,-1.7829,-1.7811,-1.7821,-1.7825,-1.7827,-1.7827,-1.7805,-1.7837,-1.7897,-1.7902,-1.7831,-1.783,-1.7829,0,-1.7702,-1.7727,-1.775,-1.7756,-1.7766,-1.7778,-1.7783,-1.7792,-1.7802,-1.7816,-1.7823,-1.784,-1.7849,-1.7864,-1.7865,-1.7851,-1.7899,-1.788,-1.79,-1.79,-1.7909,-1.7908,-1.7969,-1.7919,-1.7918,-1.7918,-1.7918,0,-1.7746,-1.7768,-1.7766,-1.778,-1.7805,-1.7802,-1.7827,-1.7831,-1.784,-1.7857,-1.785,-1.7866,-1.7867,-1.7884,-1.7886,-1.7913,-1.7918,-1.792,-1.792,-1.7919,-1.7919,-1.7924,-1.7921,-1.792,-1.792,-1.7919,-1.7919,0,-1.7788,-1.7787,-1.7813,-1.782,-1.7823,-1.784,-1.7848,-1.7863,-1.7865,-1.7886,-1.7891,-1.7896,-1.7916,-1.7919,-1.7943,-1.7944,-1.7977,-1.7975,-1.7972,-1.7971,-1.7991,-1.7988,-1.8056,-1.8065,-1.801,-1.8011,-1.8011,0,-1.7814,-1.783,-1.784,-1.7849,-1.7855,-1.7871,-1.7881,-1.788,-1.7891,-1.7905,-1.7919,-1.7938,-1.7953,-1.7986,-1.7993,-1.8012,-1.8009,-1.8032,-1.8012,-1.8011,-1.8008,-1.8006,-1.8008,-1.8035,-1.8036,-1.8036,-1.8037,0,-1.7862,-1.7861,-1.7875,-1.7889,-1.7901,-1.7912,-1.7923,-1.7932,-1.7933,-1.7946,-1.7965,-1.7977,-1.8002,-1.8021,-1.804,-1.8048,-1.8043,-1.8043,-1.8049,-1.8047,-1.8045,-1.8045,-1.7981,-1.8041,-1.8041,-1.804,-1.804,-1.804,-1.7896,-1.791,-1.7918,-1.7934,-1.7942,-1.7953,-1.7967,-1.7971,-1.7987,-1.8005,-1.8005,-1.8026,-1.804,-1.8064,-1.8073,-1.8092,-1.8085,-1.8093,-1.8095,-1.8096,-1.8098,-1.8044,-1.8096,-1.8096,-1.8096,-1.8096,-1.8095,0,-1.7942,-1.7947,-1.7962,-1.7976,-1.799,-1.7983,-1.7995,-1.8007,-1.8025,-1.8037,-1.8052,-1.8076,-1.8095,-1.8104,-1.8124,-1.8137,-1.8135,-1.8142,-1.814,-1.8142,-1.8103,-1.8096,-1.8143,-1.8143,-1.8143,-1.8143,-1.8143,-1.8143,-1.7967,-1.7989,-1.7991,-1.8018,-1.8024,-1.8044,-1.8051,-1.8062,-1.8071,-1.8097,-1.8112,-1.8118,-1.8129,-1.815,-1.8168,-1.8171,-1.8178,-1.8186,-1.8187,-1.815,-1.8145,-1.814,-1.8133,-1.8188,-1.8188,-1.8224,-1.8224,-1.8224]},{"header":{"parameterUnit":"m.s-1","parameterCategory":1,"la1":30.2991,"la2":30.254,"lo1":-89.0895,"lo2":-89.0444,"dy":0.0017,"dx":0.0017,"nx":28,"ny":28,"refTime":"2026-01-06T03:00:00:Z","depth":0,"parameterNumber":3,"parameterNumberName":"V-component_of_WINDS"},"data":[0,0,0,0,0,0,0,0,0,0,0,0,0,0,0,0,0,0,0,0,0,0,0,0,0,0,0,0,0,0,0,0,0,0,0,0,0,0,0,0,0,0,0,0,0,0,0,0,0,0,0,0,0,0,0,0,0,0,0.3872,0.3872,0,0.3886,0.3886,0.3886,0.3935,0.3936,0.3937,0.3938,0.3952,0.3951,0.3951,0,0,0,0,0,0,0,0,0,0,0,0,0,0.389,0.3889,0.3872,0.3872,0.3872,0.3886,0.3886,0.3886,0.3935,0.3936,0.3938,0.3939,0.3952,0.3951,0.3951,0,0,0,0,0,0,0,0,0,0,0,0,0,0.3891,0.3889,0.3872,0.3898,0.3901,0.3886,0.3886,0.3886,0.3935,0.3936,0.3938,0.394,0.3952,0.3951,0.395,0.391,0,0,0.3947,0.3947,0,0,0,0,0,0,0,0,0.3891,0.389,0.3894,0.3897,0.3899,0.3911,0.3897,0.3894,0.3934,0.3922,0.3939,0.394,0.3937,0.3937,0.3936,0.3911,0.3912,0.3947,0.3947,0.3946,0.3946,0,0,0,0,0,0,0,0.3891,0.389,0.3877,0.3894,0.3897,0.391,0.3912,0.3897,0.392,0.3923,0.3927,0.3928,0.3938,0.3937,0.3937,0.3912,0.3947,0.3946,0.3946,0.3945,0.3859,0.3857,0,0,0,0,0,0,0.3887,0.3889,0.3877,0.3878,0.3899,0.3908,0.3911,0.3905,0.392,0.3924,0.3926,0.393,0.3938,0.3938,0.3937,0.3894,0.3946,0.3945,0.3945,0.3861,0.3858,0.3857,0,0,0,0,0,0,0.3887,0.3885,0.3876,0.3885,0.3885,0.3906,0.39,0.3905,0.3903,0.3922,0.3927,0.392,0.3939,0.3939,0.3918,0.3895,0.3945,0.3944,0.3862,0.386,0.3858,0.3806,0,0,0,0,0,0,0.3887,0.3885,0.3869,0.3884,0.3884,0.3856,0.3898,0.3904,0.3901,0.3906,0.3918,0.3922,0.394,0.3919,0.3917,0.3895,0.3943,0.3865,0.3861,0.3858,0.3809,0.3802,0.3795,0,0,0,0,0,0.3888,0.3853,0.3868,0.3866,0.3865,0.3854,0.3854,0.3877,0.3899,0.3884,0.3897,0.3921,0.3898,0.3916,0.3914,0.3891,0.3866,0.3862,0.3859,0.3813,0.3803,0.3795,0,0,0,0,0,0,0.3834,0.3855,0.3872,0.3842,0.3846,0.3863,0.3844,0.3866,0.3863,0.3868,0.3896,0.3898,0.3874,0.388,0.3901,0.3856,0.3886,0.3882,0.3852,0.3843,0.3836,0.3835,0.3942,0,0,0,0,0,0.3819,0.3809,0.3828,0.3799,0.38,0.3822,0.3818,0.3835,0.3841,0.3843,0.3854,0.3859,0.3853,0.3848,0.3844,0.3811,0.3815,0.3794,0.3787,0.3781,0.3777,0.3763,0.3755,0.3844,0.3844,0.3844,0,0,0.3787,0.3798,0.3789,0.3788,0.3794,0.3783,0.3823,0.3809,0.3802,0.3841,0.3822,0.3831,0.3838,0.3812,0.3801,0.3816,0.3754,0.3776,0.3771,0.3771,0.3758,0.375,0.3742,0.3842,0.3842,0.3843,0,0,0.3724,0.373,0.3708,0.3713,0.3722,0.3737,0.3732,0.3746,0.3753,0.3735,0.3765,0.3757,0.3745,0.375,0.3751,0.3694,0.3716,0.3691,0.3653,0.364,0.3633,0.3627,0.3608,0.3601,0.3687,0.3687,0.3687,0,0.3683,0.3669,0.3694,0.368,0.3679,0.3715,0.3694,0.3698,0.3704,0.3703,0.3721,0.371,0.3716,0.3693,0.368,0.3678,0.3675,0.369,0.3632,0.3626,0.362,0.3603,0.3596,0.3684,0.3684,0.3685,0.3685,0,0.362,0.3609,0.359,0.3597,0.3595,0.3576,0.36,0.3595,0.3613,0.3627,0.361,0.362,0.3619,0.3615,0.3631,0.3595,0.3605,0.3626,0.3658,0.3609,0.3593,0.3586,0.368,0.3681,0.3682,0.3682,0,0,0.3522,0.3545,0.3538,0.3542,0.3555,0.3548,0.3533,0.3533,0.3529,0.3533,0.3522,0.3513,0.3534,0.3535,0.3553,0.3541,0.3498,0.3565,0.3565,0.3553,0.3461,0.3445,0.3437,0.3513,0.3512,0.3511,0.3461,0,0.3464,0.3439,0.3463,0.3434,0.3426,0.3461,0.3448,0.3455,0.3468,0.3464,0.3478,0.3472,0.35,0.3501,0.349,0.3505,0.348,0.3509,0.3504,0.3504,0.3503,0.3429,0.3412,0.3364,0.3455,0.3454,0.3453,0,0.3392,0.3394,0.3365,0.3383,0.338,0.3368,0.3372,0.3367,0.3377,0.3387,0.339,0.3413,0.3401,0.3431,0.3416,0.3435,0.3435,0.3442,0.3441,0.3442,0.3476,0.343,0.3349,0.3343,0.3443,0.3444,0.3445,0,0.3327,0.3322,0.3305,0.3307,0.3327,0.3318,0.3326,0.3338,0.3337,0.3341,0.3341,0.3343,0.3344,0.3345,0.3369,0.3388,0.3351,0.3383,0.3361,0.3361,0.3352,0.3353,0.3272,0.3349,0.335,0.335,0.335,0,0.326,0.3241,0.3276,0.3265,0.3246,0.3274,0.3254,0.3266,0.3276,0.327,0.33,0.3293,0.3323,0.332,0.3338,0.3324,0.3324,0.3333,0.3338,0.3331,0.333,0.3332,0.3336,0.3348,0.3348,0.3349,0.3349,0,0.3183,0.3206,0.319,0.3211,0.3216,0.3201,0.3219,0.3211,0.3227,0.3218,0.3218,0.3242,0.324,0.3264,0.3266,0.3278,0.3257,0.3267,0.3254,0.3257,0.3235,0.3237,0.3154,0.3145,0.3226,0.3225,0.3225,0,0.314,0.3127,0.3147,0.3145,0.3152,0.3148,0.3148,0.3176,0.3176,0.3188,0.3178,0.3179,0.3181,0.3177,0.3195,0.3198,0.321,0.318,0.321,0.3205,0.3212,0.3213,0.3213,0.3174,0.3173,0.3172,0.3172,0,0.3061,0.3074,0.3073,0.3078,0.3078,0.3082,0.3089,0.3085,0.3116,0.3114,0.3113,0.3115,0.3119,0.312,0.3126,0.3136,0.3159,0.3162,0.3158,0.3151,0.3145,0.315,0.3238,0.3164,0.3165,0.3165,0.3166,0.3166,0.3001,0.2992,0.3006,0.3006,0.3014,0.302,0.3014,0.303,0.303,0.3035,0.3052,0.3049,0.3062,0.3074,0.3081,0.308,0.3094,0.3087,0.3085,0.3083,0.308,0.3144,0.3081,0.3081,0.3081,0.3081,0.3081,0,0.2926,0.2937,0.2936,0.2946,0.2946,0.2969,0.2978,0.2977,0.2974,0.2984,0.2986,0.2987,0.2989,0.3008,0.3013,0.3008,0.302,0.3009,0.301,0.3012,0.3066,0.307,0.3,0.3,0.3,0.3,0.3,0.3,0.2887,0.2874,0.2888,0.288,0.2892,0.2889,0.2893,0.29,0.2909,0.2908,0.291,0.2923,0.2938,0.2944,0.2948,0.2954,0.2955,0.2941,0.295,0.3,0.3008,0.3016,0.302,0.294,0.294,0.2898,0.2897,0.2897]}]]